Weather History for Kingston / Norman Manley, Jamaica

Change the Weather History Date:

Monday, November 11, 2013

  Actual Average Record
Temperature  
Mean Temperature 85 °F -  
Max Temperature 93 °F 85 °F - ()
Min Temperature 77 °F 76 °F - ()
Cooling Degree Days 20    
Growing Degree Days 35 (Base 50)    
Moisture  
Dew Point 74 °F    
Average Humidity 72    
Maximum Humidity 89    
Minimum Humidity 51    
Precipitation  
Precipitation 0.00 in - - ()
Sea Level Pressure  
Sea Level Pressure 29.92 in    
Wind  
Wind Speed 8 mph ()    
Max Wind Speed 21 mph    
Max Gust Speed -    
Visibility 7.9 miles    
Events      
T = Trace of Precipitation, MM = Missing Value Source: Averaged Metar Reports

Daily Weather History Graph

Daily Weather History Graph

Search for Another Location

Airport:

Trip Planner

Search our weather history database for the weather conditions in past years. The results will help you decide how hot, cold, wet, or windy it might be!

Date:

Astronomy

Nov. 11, 2013 Rise Set
Actual Time 6:10 AM EST 5:31 PM EST
Civil Twilight 5:48 AM EST 5:54 PM EST
Nautical Twilight 5:21 AM EST 6:20 PM EST
Astronomical Twilight 4:55 AM EST 6:46 PM EST
Moon 1:24 PM EST (11/11) 12:44 AM EST (11/11)
Length of Visible Light 12h 05m
Length of Day
11h 20m
Waxing Gibbous, 66% of the Moon is Illuminated
Nov 11
Waxing Gibbous
Nov 17
Full
Nov 25
Last Quarter
Dec 2
New
Dec 9
First Quarter

Hourly Weather History & Observations

Time (EST) Temp. Heat Index Dew Point Humidity Pressure Visibility Wind Dir Wind Speed Gust Speed Precip Events Conditions
12:00 AM 80.6 °F 85.4 °F 73.4 °F 79% 29.92 in 6.2 mi North 4.6 mph - N/A   Partly Cloudy
1:00 AM 80 °F - 76 °F 83% 29.93 in 12 mi North 6.9 mph - -   Haze
1:00 AM 78.8 °F - 75.2 °F 89% 29.92 in 6.2 mi North 6.9 mph - N/A   Partly Cloudy
2:00 AM 80.6 °F 85.4 °F 73.4 °F 79% 29.92 in 6.2 mi NNW 6.9 mph - N/A   Partly Cloudy
3:00 AM 80.6 °F 85.4 °F 73.4 °F 79% 29.89 in 6.2 mi North 6.9 mph - N/A   Partly Cloudy
4:00 AM 81 °F - 73 °F 71% 29.91 in 12 mi North 4.6 mph - -   Haze
4:00 AM 80.6 °F 85.4 °F 73.4 °F 79% 29.89 in 6.2 mi North 4.6 mph - N/A   Partly Cloudy
5:00 AM 80.6 °F 84.6 °F 71.6 °F 74% 29.92 in 6.2 mi North 3.5 mph - N/A   Partly Cloudy
6:00 AM 80.6 °F 85.4 °F 73.4 °F 79% 29.92 in 6.2 mi North 5.8 mph - N/A   Partly Cloudy
7:00 AM 79 °F - 75 °F 83% 29.94 in 15 mi North 4.6 mph - -   Haze
7:00 AM 78.8 °F - 75.2 °F 89% 29.92 in 6.2 mi North 4.6 mph - N/A   Partly Cloudy
8:00 AM 80.6 °F 84.6 °F 71.6 °F 74% 29.95 in 6.2 mi NW 5.8 mph - N/A   Partly Cloudy
9:00 AM 84.2 °F 90.9 °F 73.4 °F 70% 29.98 in 6.2 mi North 4.6 mph - N/A   Scattered Clouds
10:00 AM 85 °F - 74 °F 64% 29.99 in 19 mi East 10.4 mph - -   Haze
10:00 AM 84.2 °F 92.3 °F 75.2 °F 74% 29.98 in 6.2 mi East 10.4 mph - N/A   Scattered Clouds
11:00 AM 89.6 °F 98.2 °F 73.4 °F 59% 29.95 in 6.2 mi SE 16.1 mph - N/A   Partly Cloudy
12:00 PM 86.0 °F 93.4 °F 73.4 °F 66% 29.92 in 6.2 mi ESE 15.0 mph - N/A   Scattered Clouds
1:00 PM 91 °F - 75 °F 51% 29.92 in 12 mi SE 15.0 mph - -   Mostly Cloudy
1:00 PM 91.4 °F 102.5 °F 75.2 °F 59% 29.92 in 6.2 mi SE 15.0 mph - N/A   Scattered Clouds
2:00 PM 89.6 °F 99.8 °F 75.2 °F 62% 29.89 in 6.2 mi SSE 16.1 mph - N/A   Partly Cloudy
3:00 PM 89.6 °F 102.2 °F 77.0 °F 66% 29.86 in 6.2 mi SE 20.7 mph - N/A   Partly Cloudy
4:00 PM 89 °F - 74 °F 54% 29.88 in 6 mi SE 19.6 mph - -   Partly Cloudy
4:00 PM 89.6 °F 99.8 °F 75.2 °F 62% 29.86 in 6.2 mi SE 19.6 mph - N/A   Partly Cloudy
5:00 PM - - - N/A% - - SE 18.4 mph - N/A   Unknown
6:00 PM 84.2 °F 92.3 °F 75.2 °F 74% 29.89 in 6.2 mi SE 17.3 mph - N/A   Partly Cloudy
7:00 PM 85 °F - 75 °F 65% 29.91 in 12 mi ESE 15.0 mph - -   Haze
7:00 PM 84.2 °F 92.3 °F 75.2 °F 74% 29.89 in 6.2 mi ESE 15.0 mph - N/A   Partly Cloudy
8:00 PM 82.4 °F 88.2 °F 73.4 °F 74% 29.92 in 6.2 mi East 6.9 mph - N/A   Partly Cloudy
9:00 PM 82.4 °F 89.5 °F 75.2 °F 79% 29.95 in 6.2 mi North 5.8 mph - N/A   Partly Cloudy
10:00 PM 82 °F - 74 °F 70% 29.96 in 12 mi 2.3 mph - -   Haze
10:00 PM - - - N/A% - - Variable 2.3 mph - N/A   Unknown
11:00 PM 80.6 °F 85.4 °F 73.4 °F 79% 29.95 in 6.2 mi WNW 4.6 mph - N/A   Partly Cloudy